Alamosa, CO

12:19 AM MDT on September 20, 2019 (GMT -0600)
San Luis Valley Regional / Bergman Field

Weather History for KALS - August, 2019

Change the Weather History Date:

Monday, August 19, 2019

  Actual Average Record
Temperature  
Mean Temperature 64 °F 62 °F  
Max Temperature 86 °F 79 °F 88 °F (1945)
Min Temperature 42 °F 46 °F 33 °F (1954)
Degree Days  
Heating Degree Days 1 3  
Month to date heating degree days 10 38  
Since 1 June heating degree days 210 251  
Since 1 July heating degree days 37 83  
Cooling Degree Days 0 0  
Month to date cooling degree days 14 12  
Year to date cooling degree days 64 50  
Since 1 June cooling degree days 64 50  
Growing Degree Days 14 (Base 50)    
Moisture  
Dew Point 33 °F    
Average Humidity 47    
Maximum Humidity 82    
Minimum Humidity 11    
Precipitation  
Precipitation 0.00 in 0.04 in 0.67 in (1993)
Month to date precipitation 0.82 0.78  
Year to date precipitation 6.02 4.46  
Snow  
Snow 0.00 in 0.00 in 0.00 in (2002)
Month to date snowfall 0.0 0.0  
Since 1 June snowfall 0.0 0.0  
Since 1 July snowfall 0.0 0.0  
Snow Depth 0.00 in    
Sea Level Pressure  
Sea Level Pressure 30.04 in    
Wind  
Wind Speed 5 mph (SW)    
Max Wind Speed 13 mph    
Max Gust Speed 18 mph    
Visibility 10 miles    
Events      
T = Trace of Precipitation, MM = Missing Value Source: NWS Daily Summary

Daily Weather History Graph

Daily Weather History Graph

Search for Another Location

Airport or City:

Astronomy

Aug. 19, 2019 Rise Set
Actual Time 6:22 AM MDT 7:50 PM MDT
Civil Twilight 5:55 AM MDT 8:18 PM MDT
Nautical Twilight 5:22 AM MDT 8:51 PM MDT
Astronomical Twilight 4:47 AM MDT 9:25 PM MDT
Moon 10:17 PM MDT (8/19) 10:02 AM MDT (8/19)
Length of Visible Light 14h 22m
Length of Day
13h 27m
Waning Gibbous, 85% of the Moon is Illuminated
Aug 19
Waning Gibbous
Aug 23
Last Quarter
Aug 30
New
Sep 5
First Quarter
Sep 13
Full

Hourly Weather History & Observations

Time (MDT) Temp. Windchill Dew Point Humidity Pressure Visibility Wind Dir Wind Speed Gust Speed Precip Events Conditions
12:52 AM 52.0 °F - 34.0 °F 50% 29.99 in 10.0 mi SE 5.8 mph - N/A   Clear
1:52 AM 48.0 °F - 36.0 °F 63% 30.01 in 10.0 mi East 6.9 mph - N/A   Clear
2:52 AM 46.9 °F - 35.1 °F 63% 30.00 in 10.0 mi ESE 5.8 mph - N/A   Clear
3:52 AM 46.0 °F 44.8 °F 35.1 °F 66% 30.01 in 10.0 mi West 3.5 mph - N/A   Clear
4:52 AM 46.0 °F - 35.1 °F 66% 30.02 in 10.0 mi Calm Calm - N/A   Clear
5:52 AM 43.0 °F 40.3 °F 36.0 °F 76% 30.06 in 10.0 mi WNW 4.6 mph - N/A   Clear
6:52 AM 43.0 °F - 37.0 °F 80% 30.09 in 10.0 mi Calm Calm - N/A   Clear
7:52 AM 50.0 °F - 39.0 °F 66% 30.13 in 10.0 mi SSE 4.6 mph - N/A   Clear
8:52 AM 57.9 °F - 37.9 °F 47% 30.13 in 10.0 mi Calm Calm - N/A   Clear
9:52 AM 66.9 °F - 34.0 °F 30% 30.12 in 10.0 mi ENE 4.6 mph - N/A   Clear
10:52 AM 73.9 °F - 32.0 °F 21% 30.11 in 10.0 mi NE 6.9 mph - N/A   Clear
11:52 AM 79.0 °F - 34.0 °F 20% 30.09 in 10.0 mi SE 5.8 mph - N/A   Clear
12:52 PM 82.0 °F - 27.0 °F 13% 30.05 in 10.0 mi North - - N/A   Clear
1:52 PM 82.9 °F - 25.0 °F 12% 30.04 in 10.0 mi East 9.2 mph - N/A   Clear
2:52 PM 84.9 °F - 24.1 °F 11% 30.02 in 10.0 mi SW 9.2 mph - N/A   Clear
3:52 PM 84.9 °F - 25.0 °F 11% 30.00 in 10.0 mi West 12.7 mph 18.4 mph N/A   Clear
4:52 PM 84.0 °F - 24.1 °F 11% 30.00 in 10.0 mi Calm Calm - N/A   Clear
5:52 PM 82.0 °F - 26.1 °F 13% 30.00 in 10.0 mi West 9.2 mph - N/A   Clear
6:52 PM 80.1 °F - 27.0 °F 14% 30.00 in 10.0 mi NNW 8.1 mph - N/A   Clear
7:52 PM 75.9 °F - 33.1 °F 21% 29.99 in 10.0 mi NNW 3.5 mph - N/A   Clear
8:52 PM 66.9 °F - 39.0 °F 36% 30.00 in 10.0 mi Calm Calm - N/A   Clear
9:52 PM 62.1 °F - 41.0 °F 46% 30.01 in 10.0 mi WSW 4.6 mph - N/A   Clear
10:52 PM 60.1 °F - 37.0 °F 42% 30.00 in 10.0 mi WNW 6.9 mph - N/A   Clear
11:52 PM 51.1 °F - 39.0 °F 63% 30.04 in 10.0 mi SSE 6.9 mph - N/A   Clear